User: anonymous   Login
Location: Unspecified
(0.0000°N, 0.0000°E)
Time: 09:03:17
(UTC+00:00)
Language:

TBA - TO BE ASSIGNED - Orbit

View from above orbital plane
View from above orbital plane
View from above satellite
View from above satellite

Ground track
Ground track

The orbit is defined by the following mean orbital elements,

1 67518U          26145.57379373 +.00000000 +00000-0 +53190-3 0 00003
2 67518  43.0037 239.9020 0001015 276.8842  83.1894 15.27587138    05
Epoch (UTC): 25 May 2026 13:46:15
Eccentricity: 0.0001015
inclination: 43.0037°
perigee height: 482 km
apogee height: 484 km
right ascension of ascending node: 239.9020°
argument of perigee: 276.8842°
revolutions per day: 15.27587138
mean anomaly at epoch: 83.1894°

The dashed part of the orbit path shows where the satellite is in the earth's shadow,  

DLR